Weather in Ordo-Vasylivka

Ukraine / Dnipropetrovsk Region     48°11′40″N   33°42′24″E
temp.,
°C
wind,
m/s
gust,
m/s
humid.,
%
clouds,
%
prec.,
mm/h
press.,
hPa
HPBL,
m
15 august, mon
mon1500:00+26ene81730100 0.0 1007563
03:00+26ene8162743 0.0 1006578
06:00+24ene7143163 0.0 1006465
09:00+27ene8153296 0.1 1006593
12:00+30e7112663 0.0 10061124
15:00+36ese81017100 0.0 10043494
18:00+34se6925100 0.1 10042349
21:00+26s3656100 2.1 1005110
16 august, tue
tue1600:00+23wsw2375100 0.2 100656
03:00+21sse2379100 4.4 100888
06:00+21se3784100 0.2 1009214
09:00+20wnw2285100 1.2 100976
12:00+22ene3474100 0.2 1009512
15:00+28wsw134722 0.2 10091550
18:00+28w23435 0.0 10091655
21:00+22nne33640 0.3 101045
17 august, wed
wed1700:00+20ene348014 1.3 101057
03:00+20e33830 3.3 100950
06:00+20se228416 0.1 100929
09:00+25s34625 0.1 1009514
12:00+29s33416 0.0 10091547
15:00+31sse22345 0.0 10082418
18:00+28sw7645100 0.1 1009836
21:00+20wnw4782100 1.3 1010294
18 august, thu
thu1800:00+20nw227554 0.1 100960
03:00+19nnw117996 0.1 100911
06:00+19w227998 0.0 100922
09:00+24wsw226162 0.0 1009362
12:00+28sw234556 0.0 10091287
15:00+31sw223774 0.0 10082069
18:00+31s2237100 0.1 10081778
21:00+21sw5980100 0.3 1009249
19 august, fri
fri1900:00+20w2486100 2.3 1008103
03:00+21nnw2480100 3.7 100883
06:00+21wsw1177100 2.1 100814
09:00+24ne226574 2.6 1009341
12:00+30nne114618 0.0 10091038
15:00+32s033736 0.0 10092419
18:00+21nne7890100 6.8 1009188
21:00+21nne61184100 14.9 1010234